This is the latest recevied weather packets stored in our database for station/object W0WFX-2. If no packets are shown the sender has not sent any weather packets the latest 10 day(s).
| Time | Temp. | Humidity | Pressure | Rain* | Wind** | Luminosity | Snow |
|---|---|---|---|---|---|---|---|
| 1788630864 | 38.33° C | 37% | 1014.9 hPa | 0 mm | - | 734 W/m² | - |
| 1788630559 | 38.33° C | 39% | 1014.6 hPa | 0 mm | - | 811 W/m² | - |
| 1788630255 | 38.89° C | 37% | 1014.7 hPa | 0 mm | - | 670 W/m² | - |
| 1788629950 | 38.33° C | 37% | 1014.9 hPa | 0 mm | - | 786 W/m² | - |
| 1788629647 | 38.33° C | 36% | 1014.7 hPa | 0 mm | - | 763 W/m² | - |
| 1788629347 | 38.33° C | 36% | 1015 hPa | 0 mm | - | 712 W/m² | - |
| 1788629044 | 38.33° C | 38% | 1014.9 hPa | 0 mm | - | 689 W/m² | - |
| 1788628740 | 38.33° C | 39% | 1015.1 hPa | 0 mm | - | 725 W/m² | - |
| 1788628437 | 37.78° C | 38% | 1015.2 hPa | 0 mm | - | 717 W/m² | - |
| 1788628133 | 37.78° C | 38% | 1015.3 hPa | 0 mm | - | 693 W/m² | - |
| 1788627829 | 37.22° C | 39% | 1015.5 hPa | 0 mm | - | 703 W/m² | - |
| 1788627528 | 37.78° C | 40% | 1015.5 hPa | 0 mm | - | 590 W/m² | - |
| 1788627224 | 37.22° C | 40% | 1015.3 hPa | 0 mm | - | 663 W/m² | - |
| 1788626918 | 37.78° C | 39% | 1015.5 hPa | 0 mm | - | 680 W/m² | - |
| 1788626613 | 37.22° C | 41% | 1015.5 hPa | 0 mm | - | 675 W/m² | - |
| 1788626309 | 37.78° C | 41% | 1015.3 hPa | 0 mm | - | 666 W/m² | - |
| 1788626005 | 37.78° C | 39% | 1015.6 hPa | 0 mm | - | 653 W/m² | - |
| 1788625701 | 37.78° C | 42% | 1015.6 hPa | 0 mm | - | 627 W/m² | - |
| 1788625401 | 37.78° C | 42% | 1015.5 hPa | 0 mm | - | 577 W/m² | - |
| 1788625101 | 37.78° C | 41% | 1015.5 hPa | 0 mm | - | 629 W/m² | - |
| 1788624800 | 37.22° C | 41% | 1015.3 hPa | 0 mm | - | 546 W/m² | - |
| 1788624499 | 37.22° C | 43% | 1015.3 hPa | 0 mm | - | 566 W/m² | - |
| 1788624222 | 36.67° C | 44% | 1015.2 hPa | 0 mm | - | 575 W/m² | - |
| 1788623888 | 36.67° C | 43% | 1015.2 hPa | 0 mm | - | 574 W/m² | - |
| 1788623587 | 36.11° C | 44% | 1015.3 hPa | 0 mm | - | 540 W/m² | - |
* Rain latest hour (hover to see other rain measurements)
** Current wind speed in m/s (hover to see current wind gust speed)